Regional Weather Roundup
Issued by NWS Little Rock, AR

Home | Current Version | Previous Version | Text Only | Print | Product List | Glossary Off
Versions: 1 2 3 4 5 6 7 8 9 10 11 12 13 14 15 16 17 18 19 20 21 22 23 24 25 26 27 28 29 30 31 32 33 34 35 36 37 38 39 40 41 42 43 44 45 46 47 48 49 50

989
ASUS44 KLZK 070305
RWRLZK

WEATHER ROUNDUP FOR ARKANSAS
NATIONAL WEATHER SERVICE LITTLE ROCK AR
900 PM CST SAT FEB 06 2016

NOTE: "FAIR" INDICATES FEW OR NO CLOUDS BELOW 12,000 FEET WITH NO
SIGNIFICANT WEATHER AND/OR OBSTRUCTIONS TO VISIBILITY.

ARZ001-003-010-029-070400-
NORTHWEST ARKANSAS

CITY           SKY/WX    TMP DP  RH WIND       PRES   REMARKS
FAYETTEVILLE   CLEAR     32  26  78 S6        30.25F WCI  26
FORT SMITH     CLEAR     37  25  61 CALM      30.28F
HARRISON       CLEAR     42  23  46 SW5       30.24F
BENTONVILLE    CLEAR     39  25  56 W3        30.26R
ROGERS         CLEAR     42  27  55 SW7       30.25S
SILOAM SPGS    CLEAR     41  23  48 SW3       30.26S
HIGHFILL       CLEAR     41  28  60 SW6       30.24F
SPRINGDALE     CLEAR     41  27  56 SW6       30.26F
$$

ARZ004-005-016-070400-
NORTH CENTRAL ARKANSAS

CITY           SKY/WX    TMP DP  RH WIND       PRES   REMARKS
BATESVILLE     CLEAR     45  19  36 S3        30.30S
FLIPPIN        CLEAR     43  16  33 SW5       30.23F
MTN HOME       CLEAR     41  17  38 S6        30.24F
$$

ARZ040-041-070400-
WEST CENTRAL ARKANSAS

CITY           SKY/WX    TMP DP  RH WIND       PRES   REMARKS
MENA           CLEAR     34  28  80 W3        30.29F
MOUNT IDA      CLEAR     35  22  58 CALM      30.28R
$$

ARZ009-017-025-026-028-070400-
NORTHEAST ARKANSAS

CITY           SKY/WX    TMP DP  RH WIND       PRES   REMARKS
CORNING        FAIR      37  27  65 S9        30.29S
JONESBORO      CLEAR     36  25  64 CALM      30.30F
NEWPORT        CLEAR     36  27  70 S7        30.31F
WALNUT RIDGE   CLEAR     36  25  64 S8        30.29S
BLYTHEVILLE    CLEAR     40  27  59 SW6       30.31S
$$

ARZ022-023-033-042-044-070400-
CENTRAL ARKANSAS

CITY           SKY/WX    TMP DP  RH WIND       PRES   REMARKS
LITTLE ROCK    CLEAR     40  26  57 CALM      30.32R
N LITTLE ROCK  CLEAR     44  24  46 SW5       30.32R
JACKSONVILLE   CLEAR     34  24  66 CALM      30.30S
SEARCY         CLEAR     34  27  75 CALM      30.32S
HOT SPRINGS    CLEAR     39  24  55 CALM      30.32R
RUSSELLVILLE   PTCLDY    34  22  61 CALM      30.29S HAZE
CLINTON        FAIR      30  23  74 CALM      30.31S
$$

ARZ036-070400-
EAST ARKANSAS

CITY           SKY/WX    TMP DP  RH WIND       PRES   REMARKS
WEST MEMPHIS   CLEAR     34  30  85 CALM      30.31S
$$

ARZ050-053-066-070-073-070400-
SOUTHWEST ARKANSAS

CITY           SKY/WX    TMP DP  RH WIND       PRES   REMARKS
ARKADELPHIA    FAIR      35  31  86 CALM      30.33R
CAMDEN         CLEAR     36  27  69 CALM      30.33R
TEXARKANA      CLEAR     44  28  53 SW5       30.33R
EL DORADO      CLEAR     36  28  73 CALM      30.33R
DE QUEEN       CLEAR     34  30  85 CALM      30.31S
$$

ARZ056-057-069-070400-
SOUTHEAST ARKANSAS

CITY           SKY/WX    TMP DP  RH WIND       PRES   REMARKS
PINE BLUFF     CLEAR     38  29  70 CALM      30.32S
STUTTGART      CLEAR     43  28  56 SE7       30.32S
MONTICELLO     CLEAR     36  26  67 CALM      30.32S

$$






USA.gov is the U.S. government's official web portal to all federal, state and local government web resources and services.